| time (UTC) | temp C | wind direction | speed KPH | gust KPH | rain 1hr cm | rain 24hr cm | rain mn cm | humidity % | barometer mb |
| 20260504035653 | 12 | 196 | 3.2 | 8.0 | 0.00 | 0.00 | 0.00 | 72 | 1003.3 |
| 20260504035145 | 12 | 208 | 4.8 | 8.0 | 0.00 | 0.00 | 0.00 | 72 | 1003.3 |
| 20260504034640 | 12 | 230 | 4.8 | 11.3 | 0.00 | 0.00 | 0.00 | 72 | 1003.4 |
| 20260504034133 | 12 | 212 | 4.8 | 11.3 | 0.00 | 0.00 | 0.00 | 72 | 1003.4 |
| 20260504033627 | 12 | 204 | 4.8 | 9.7 | 0.00 | 0.00 | 0.00 | 72 | 1003.4 |
| 20260504033117 | 12 | 225 | 4.8 | 8.0 | 0.00 | 0.00 | 0.00 | 71 | 1003.5 |
| 20260504032615 | 12 | 241 | 4.8 | 8.0 | 0.00 | 0.00 | 0.00 | 71 | 1003.5 |
| 20260504032109 | 13 | 198 | 4.8 | 11.3 | 0.00 | 0.00 | 0.00 | 71 | 1003.5 |
| 20260504031605 | 13 | 195 | 4.8 | 11.3 | 0.00 | 0.00 | 0.00 | 71 | 1003.6 |
| 20260504031059 | 13 | 211 | 3.2 | 8.0 | 0.00 | 0.00 | 0.00 | 71 | 1003.6 |
| 20260504030548 | 13 | 202 | 3.2 | 9.7 | 0.00 | 0.00 | 0.00 | 71 | 1003.6 |
| 20260504030045 | 13 | 219 | 3.2 | 8.0 | 0.00 | 0.00 | 0.00 | 70 | 1003.7 |
| 20260504025539 | 13 | 211 | 3.2 | 6.4 | 0.00 | 0.00 | 0.00 | 70 | 1003.7 |
| 20260504025034 | 13 | 211 | 3.2 | 8.0 | 0.00 | 0.00 | 0.00 | 70 | 1003.7 |
| 20260504024528 | 13 | 223 | 4.8 | 11.3 | 0.00 | 0.00 | 0.00 | 70 | 1003.5 |
| 20260504024018 | 13 | 184 | 3.2 | 11.3 | 0.00 | 0.00 | 0.00 | 70 | 1003.5 |
| 20260504023515 | 13 | 177 | 3.2 | 8.0 | 0.00 | 0.00 | 0.00 | 69 | 1003.5 |
| 20260504023448 | 13 | 213 | 3.2 | 8.0 | 0.00 | 0.00 | 0.00 | 69 | 1003.4 |
| 20260504022503 | 13 | 186 | 3.2 | 8.0 | 0.00 | 0.00 | 0.00 | 69 | 1003.4 |
| 20260504022441 | 13 | 188 | 3.2 | 11.3 | 0.00 | 0.00 | 0.00 | 68 | 1003.4 |
| 20260504021453 | 13 | 145 | 3.2 | 11.3 | 0.00 | 0.00 | 0.00 | 68 | 1003.3 |
| 20260504020947 | 13 | 219 | 3.2 | 8.0 | 0.00 | 0.00 | 0.00 | 68 | 1003.3 |
| 20260504020435 | 14 | 215 | 3.2 | 6.4 | 0.00 | 0.00 | 0.00 | 68 | 1003.1 |
| 20260504015932 | 14 | 217 | 3.2 | 8.0 | 0.00 | 0.00 | 0.00 | 67 | 1003.1 |
| 20260504015646 | 14 | 193 | 4.8 | 8.0 | 0.00 | 0.00 | 0.00 | 67 | 1003.1 |
| 20260504015143 | 14 | 213 | 4.8 | 9.7 | 0.00 | 0.00 | 0.00 | 66 | 1003.1 |
| 20260504014642 | 14 | 219 | 4.8 | 9.7 | 0.00 | 0.00 | 0.00 | 66 | 1003.1 |
| 20260504013904 | 15 | 203 | 3.2 | 9.7 | 0.00 | 0.00 | 0.00 | 66 | 1003.1 |
| 20260504013404 | 15 | 196 | 3.2 | 6.4 | 0.00 | 0.00 | 0.00 | 65 | 1003.0 |
| 20260504012858 | 15 | 225 | 4.8 | 6.4 | 0.00 | 0.00 | 0.00 | 65 | 1003.0 |
| 20260504012351 | 15 | 232 | 4.8 | 9.7 | 0.00 | 0.00 | 0.00 | 64 | 1003.0 |
| 20260504011846 | 15 | 192 | 3.2 | 9.7 | 0.00 | 0.00 | 0.00 | 63 | 1002.9 |
| 20260504011339 | 15 | 211 | 3.2 | 14.5 | 0.00 | 0.00 | 0.00 | 63 | 1002.9 |
| 20260504010832 | 16 | 196 | 4.8 | 14.5 | 0.00 | 0.00 | 0.00 | 62 | 1002.9 |
| 20260504010323 | 16 | 174 | 3.2 | 9.7 | 0.00 | 0.00 | 0.00 | 61 | 1003.0 |
| 20260504010047 | 16 | 196 | 4.8 | 9.7 | 0.00 | 0.00 | 0.00 | 61 | 1003.0 |
| 20260504005315 | 16 | 217 | 4.8 | 11.3 | 0.00 | 0.00 | 0.00 | 60 | 1003.0 |
| 20260504004809 | 16 | 226 | 6.4 | 12.9 | 0.00 | 0.00 | 0.00 | 59 | 1003.0 |
| 20260504004303 | 16 | 242 | 8.0 | 14.5 | 0.00 | 0.00 | 0.00 | 59 | 1003.0 |
| 20260504003757 | 17 | 195 | 8.0 | 17.7 | 0.00 | 0.00 | 0.00 | 58 | 1003.0 |
| 20260504003515 | 17 | 225 | 8.0 | 17.7 | 0.00 | 0.00 | 0.00 | 57 | 1003.0 |
| 20260504002757 | 17 | 229 | 9.7 | 19.3 | 0.00 | 0.00 | 0.00 | 56 | 1003.0 |
| 20260504002520 | 17 | 192 | 11.3 | 25.7 | 0.00 | 0.00 | 0.00 | 55 | 1003.0 |
| 20260504001757 | 18 | 232 | 12.9 | 25.7 | 0.00 | 0.00 | 0.00 | 54 | 1003.2 |
| 20260504001743 | 18 | 240 | 11.3 | 25.7 | 0.00 | 0.00 | 0.00 | 54 | 1003.2 |
| 20260504001022 | 18 | 212 | 12.9 | 25.7 | 0.00 | 0.00 | 0.00 | 53 | 1003.2 |
| 20260504000259 | 18 | 221 | 12.9 | 32.2 | 0.00 | 0.00 | 0.00 | 52 | 1003.0 |
| 20260503235801 | 18 | 224 | 12.9 | 32.2 | 0.00 | 0.00 | 0.00 | 52 | 1003.0 |
| 20260503235254 | 18 | 238 | 12.9 | 32.2 | 0.00 | 0.00 | 0.00 | 52 | 1003.0 |
| 20260503234741 | 18 | 238 | 12.9 | 32.2 | 0.00 | 0.00 | 0.00 | 52 | 1003.1 |
| 20260503234231 | 18 | 234 | 11.3 | 30.6 | 0.00 | 0.00 | 0.00 | 52 | 1003.1 |
| 20260503233725 | 18 | 253 | 11.3 | 24.1 | 0.00 | 0.00 | 0.00 | 52 | 1003.1 |
| 20260503233219 | 18 | 231 | 12.9 | 22.5 | 0.00 | 0.00 | 0.00 | 51 | 1003.1 |
| 20260503232713 | 18 | 216 | 14.5 | 29.0 | 0.00 | 0.00 | 0.00 | 51 | 1003.1 |
| 20260503232207 | 18 | 232 | 14.5 | 29.0 | 0.00 | 0.00 | 0.00 | 51 | 1003.1 |
| 20260503231921 | 18 | 196 | 12.9 | 27.4 | 0.00 | 0.00 | 0.00 | 51 | 1003.3 |
| 20260503231155 | 18 | 216 | 11.3 | 24.1 | 0.00 | 0.00 | 0.00 | 53 | 1003.3 |
| 20260503230645 | 18 | 211 | 11.3 | 20.9 | 0.00 | 0.00 | 0.00 | 53 | 1003.3 |
| 20260503230143 | 18 | 241 | 11.3 | 24.1 | 0.00 | 0.00 | 0.00 | 53 | 1003.4 |
| 20260503230122 | 17 | 181 | 12.9 | 24.1 | 0.00 | 0.00 | 0.00 | 53 | 1003.4 |
| 20260503225132 | 18 | 227 | 11.3 | 22.5 | 0.00 | 0.00 | 0.00 | 53 | 1003.4 |
| 20260503225113 | 18 | 231 | 11.3 | 22.5 | 0.00 | 0.00 | 0.00 | 54 | 1003.5 |
| 20260503224119 | 17 | 227 | 11.3 | 20.9 | 0.00 | 0.00 | 0.00 | 53 | 1003.5 |
| 20260503223614 | 17 | 196 | 11.3 | 24.1 | 0.00 | 0.00 | 0.00 | 54 | 1003.5 |
| 20260503223337 | 17 | 241 | 11.3 | 24.1 | 0.00 | 0.00 | 0.00 | 53 | 1003.8 |
| 20260503222615 | 17 | 217 | 9.7 | 20.9 | 0.00 | 0.00 | 0.00 | 54 | 1003.8 |
| 20260503222114 | 17 | 167 | 9.7 | 22.5 | 0.00 | 0.00 | 0.00 | 54 | 1003.8 |
| 20260503221834 | 17 | 199 | 11.3 | 22.5 | 0.00 | 0.00 | 0.00 | 54 | 1003.9 |
| 20260503221114 | 17 | 173 | 11.3 | 22.5 | 0.00 | 0.00 | 0.00 | 54 | 1003.9 |
| 20260503220614 | 17 | 188 | 11.3 | 20.9 | 0.00 | 0.00 | 0.00 | 53 | 1003.9 |
| 20260503220333 | 17 | 191 | 11.3 | 24.1 | 0.00 | 0.00 | 0.00 | 53 | 1003.9 |
| 20260503215614 | 17 | 172 | 11.3 | 24.1 | 0.00 | 0.00 | 0.00 | 52 | 1003.9 |
| 20260503215114 | 17 | 188 | 12.9 | 30.6 | 0.00 | 0.00 | 0.00 | 53 | 1003.9 |
| 20260503214614 | 17 | 235 | 14.5 | 32.2 | 0.00 | 0.00 | 0.00 | 52 | 1004.0 |
| 20260503214111 | 17 | 184 | 14.5 | 32.2 | 0.00 | 0.00 | 0.00 | 52 | 1004.0 |
| 20260503213610 | 17 | 239 | 16.1 | 40.2 | 0.00 | 0.00 | 0.00 | 50 | 1004.0 |
| 20260503213110 | 17 | 281 | 17.7 | 40.2 | 0.00 | 0.00 | 0.00 | 49 | 1004.4 |
| 20260503212611 | 17 | 223 | 16.1 | 37.0 | 0.00 | 0.00 | 0.00 | 50 | 1004.4 |
| 20260503212110 | 17 | 209 | 14.5 | 30.6 | 0.00 | 0.00 | 0.00 | 51 | 1004.4 |
| 20260503211610 | 17 | 188 | 16.1 | 30.6 | 0.00 | 0.00 | 0.00 | 53 | 1004.8 |
| 20260503211110 | 17 | 243 | 16.1 | 32.2 | 0.00 | 0.00 | 0.00 | 51 | 1004.8 |
| 20260503210604 | 16 | 255 | 14.5 | 32.2 | 0.00 | 0.00 | 0.00 | 51 | 1004.8 |
| 20260503210056 | 16 | 239 | 14.5 | 33.8 | 0.00 | 0.00 | 0.00 | 51 | 1005.0 |
| 20260503205549 | 16 | 201 | 16.1 | 33.8 | 0.00 | 0.00 | 0.00 | 50 | 1005.0 |
| 20260503205043 | 16 | 234 | 17.7 | 35.4 | 0.00 | 0.00 | 0.00 | 50 | 1005.0 |
| 20260503204537 | 16 | 213 | 16.1 | 35.4 | 0.00 | 0.00 | 0.00 | 49 | 1005.1 |
| 20260503204028 | 16 | 242 | 16.1 | 29.0 | 0.00 | 0.00 | 0.00 | 51 | 1005.1 |
| 20260503203525 | 16 | 293 | 16.1 | 27.4 | 0.00 | 0.00 | 0.00 | 51 | 1005.1 |
| 20260503203020 | 16 | 224 | 16.1 | 33.8 | 0.00 | 0.00 | 0.00 | 50 | 1005.5 |
| 20260503202736 | 17 | 215 | 19.3 | 41.8 | 0.00 | 0.00 | 0.00 | 50 | 1005.5 |
| 20260503202230 | 17 | 242 | 19.3 | 41.8 | 0.00 | 0.00 | 0.00 | 49 | 1005.5 |
| 20260503201502 | 17 | 128 | 17.7 | 33.8 | 0.00 | 0.00 | 0.00 | 51 | 1005.4 |
| 20260503201000 | 17 | 181 | 17.7 | 35.4 | 0.00 | 0.00 | 0.00 | 51 | 1005.4 |
| 20260503200503 | 17 | 186 | 19.3 | 35.4 | 0.00 | 0.00 | 0.00 | 49 | 1005.4 |
| 20260503195959 | 17 | 204 | 19.3 | 37.0 | 0.00 | 0.00 | 0.00 | 48 | 1005.5 |
| 20260503195501 | 17 | 217 | 16.1 | 37.0 | 0.00 | 0.00 | 0.00 | 47 | 1005.5 |
| 20260503195000 | 17 | 216 | 12.9 | 32.2 | 0.00 | 0.00 | 0.00 | 52 | 1005.5 |
| 20260503194502 | 17 | 180 | 14.5 | 32.2 | 0.00 | 0.00 | 0.00 | 52 | 1005.9 |
| 20260503193959 | 17 | 187 | 17.7 | 41.8 | 0.00 | 0.00 | 0.00 | 50 | 1005.9 |
| 20260503193513 | 17 | 172 | 17.7 | 41.8 | 0.00 | 0.00 | 0.00 | 49 | 1005.9 |
| 20260503193004 | 17 | 229 | 16.1 | 40.2 | 0.00 | 0.00 | 0.00 | 51 | 1006.0 |
| 20260503192456 | 16 | 219 | 19.3 | 40.2 | 0.00 | 0.00 | 0.00 | 53 | 1006.0 |
| 20260503191941 | 16 | 202 | 16.1 | 35.4 | 0.00 | 0.00 | 0.00 | 52 | 1006.5 |
| 20260503191429 | 16 | 200 | 14.5 | 38.6 | 0.00 | 0.00 | 0.00 | 55 | 1006.5 |
| 20260503190918 | 16 | 192 | 17.7 | 38.6 | 0.00 | 0.00 | 0.00 | 55 | 1006.5 |
| 20260503190407 | 16 | 234 | 16.1 | 37.0 | 0.00 | 0.00 | 0.00 | 54 | 1006.6 |
| 20260503185905 | 16 | 149 | 11.3 | 27.4 | 0.00 | 0.00 | 0.00 | 56 | 1006.6 |
| 20260503185400 | 15 | 227 | 9.7 | 25.7 | 0.00 | 0.00 | 0.00 | 60 | 1006.6 |
| 20260503184854 | 15 | 233 | 8.0 | 19.3 | 0.00 | 0.00 | 0.00 | 62 | 1007.1 |
| 20260503184348 | 14 | 117 | 8.0 | 20.9 | 0.00 | 0.00 | 0.00 | 65 | 1007.1 |
| 20260503183838 | 13 | 155 | 9.7 | 20.9 | 0.00 | 0.00 | 0.00 | 67 | 1007.1 |
| 20260503183559 | 13 | 121 | 8.0 | 20.9 | 0.00 | 0.00 | 0.00 | 68 | 1007.3 |
| 20260503182831 | 12 | 140 | 6.4 | 14.5 | 0.00 | 0.00 | 0.00 | 72 | 1007.3 |
| 20260503182325 | 11 | 129 | 8.0 | 17.7 | 0.00 | 0.00 | 0.00 | 74 | 1007.3 |
| 20260503182041 | 11 | 113 | 6.4 | 17.7 | 0.00 | 0.00 | 0.00 | 74 | 1008.0 |
| 20260503181311 | 10 | 144 | 4.8 | 12.9 | 0.00 | 0.00 | 0.00 | 75 | 1008.0 |
| 20260503180805 | 10 | 112 | 4.8 | 12.9 | 0.00 | 0.00 | 0.00 | 75 | 1008.0 |
| 20260503180259 | 10 | 115 | 4.8 | 12.9 | 0.00 | 0.00 | 0.00 | 73 | 1008.8 |
| 20260503175753 | 10 | 154 | 3.2 | 11.3 | 0.00 | 0.00 | 0.00 | 73 | 1008.8 |
| 20260503175249 | 10 | 184 | 4.8 | 14.5 | 0.00 | 0.00 | 0.00 | 73 | 1008.8 |
| 20260503174738 | 10 | 162 | 6.4 | 24.1 | 0.00 | 0.00 | 0.00 | 73 | 1009.7 |
| 20260503174236 | 10 | 198 | 8.0 | 24.1 | 0.00 | 0.00 | 0.00 | 73 | 1009.7 |
| 20260503173726 | 10 | 0 | 4.8 | 22.5 | 0.00 | 0.00 | 0.00 | 75 | 1009.7 |
| 20260503173224 | 10 | 213 | 6.4 | 11.3 | 0.00 | 0.00 | 0.00 | 76 | 1009.7 |
| 20260503172718 | 10 | 189 | 4.8 | 12.9 | 0.00 | 0.00 | 0.00 | 76 | 1009.7 |
| 20260503172439 | 10 | 219 | 4.8 | 14.5 | 0.00 | 0.00 | 0.00 | 78 | 1009.7 |
| 20260503171706 | 10 | 165 | 6.4 | 14.5 | 0.00 | 0.00 | 0.00 | 78 | 1009.9 |
| 20260503171200 | 10 | 246 | 6.4 | 12.9 | 0.00 | 0.00 | 0.00 | 78 | 1009.9 |
| 20260503170914 | 10 | 140 | 4.8 | 11.3 | 0.00 | 0.00 | 0.00 | 78 | 1009.9 |
| 20260503170151 | 9 | 180 | 4.8 | 12.9 | 0.00 | 0.00 | 0.00 | 79 | 1010.4 |
| 20260503160143 | 9 | 207 | 9.7 | 20.9 | 0.00 | 0.00 | 0.00 | 78 | 1011.4 |
| 20260503150642 | 11 | 229 | 14.5 | 33.8 | 0.00 | 0.00 | 0.00 | 63 | 1010.8 |
| 20260503150145 | 11 | 225 | 12.9 | 25.7 | 0.00 | 0.00 | 0.00 | 63 | 1010.5 |
| 20260503130938 | 8 | 233 | 9.7 | 22.5 | 0.00 | 0.00 | 0.00 | 69 | 1011.4 |
| 20260503130431 | 8 | 234 | 9.7 | 29.0 | 0.00 | 0.00 | 0.00 | 69 | 1011.5 |
| 20260503110707 | 6 | 226 | 11.3 | 20.9 | 0.00 | 0.00 | 0.00 | 69 | 1011.2 |
| 20260503110208 | 6 | 210 | 9.7 | 17.7 | 0.00 | 0.00 | 0.00 | 70 | 1011.3 |
| 20260503100126 | 6 | 225 | 8.0 | 14.5 | 0.00 | 0.00 | 0.00 | 70 | 1011.4 |
| 20260503081415 | 5 | 220 | 8.0 | 17.7 | 0.00 | 0.00 | 0.00 | 69 | 1011.8 |
| 20260503080910 | 5 | 227 | 9.7 | 17.7 | 0.00 | 0.00 | 0.00 | 68 | 1011.8 |
| 20260503080628 | 5 | 240 | 9.7 | 14.5 | 0.00 | 0.00 | 0.00 | 68 | 1011.7 |
| 20260503072857 | 6 | 217 | 8.0 | 16.1 | 0.00 | 0.00 | 0.00 | 67 | 1011.8 |
| 20260503072357 | 6 | 242 | 8.0 | 14.5 | 0.00 | 0.00 | 0.00 | 67 | 1011.8 |
| 20260503071856 | 6 | 221 | 8.0 | 14.5 | 0.00 | 0.00 | 0.00 | 67 | 1011.9 |
| 20260503071359 | 6 | 245 | 8.0 | 14.5 | 0.00 | 0.00 | 0.00 | 67 | 1011.9 |
| 20260503070901 | 6 | 259 | 9.7 | 16.1 | 0.00 | 0.00 | 0.00 | 67 | 1011.9 |
| 20260503070843 | 6 | 221 | 9.7 | 17.7 | 0.00 | 0.00 | 0.00 | 67 | 1012.0 |
| 20260503060217 | 6 | 234 | 6.4 | 11.3 | 0.00 | 0.00 | 0.00 | 67 | 1012.5 |
| 20260503054655 | 6 | 215 | 4.8 | 9.7 | 0.00 | 0.00 | 0.00 | 67 | 1012.6 |
| 20260503054153 | 6 | 209 | 4.8 | 9.7 | 0.00 | 0.00 | 0.00 | 67 | 1012.6 |
| 20260503053646 | 6 | 230 | 4.8 | 11.3 | 0.00 | 0.00 | 0.00 | 67 | 1012.6 |
| 20260503053136 | 6 | 223 | 4.8 | 11.3 | 0.00 | 0.00 | 0.00 | 67 | 1012.8 |
| 20260503052855 | 6 | 216 | 4.8 | 8.0 | 0.00 | 0.00 | 0.00 | 68 | 1012.8 |
| 20260503052125 | 6 | 215 | 4.8 | 8.0 | 0.00 | 0.00 | 0.00 | 68 | 1012.8 |
| 20260503051623 | 6 | 222 | 4.8 | 8.0 | 0.00 | 0.00 | 0.00 | 68 | 1012.9 |
| 20260503051122 | 6 | 246 | 4.8 | 8.0 | 0.00 | 0.00 | 0.00 | 69 | 1012.9 |
| 20260503050622 | 6 | 219 | 3.2 | 8.0 | 0.00 | 0.00 | 0.00 | 69 | 1012.9 |
| 20260503050122 | 6 | 217 | 3.2 | 6.4 | 0.00 | 0.00 | 0.00 | 69 | 1012.9 |
| 20260503045621 | 6 | 221 | 3.2 | 6.4 | 0.00 | 0.00 | 0.00 | 69 | 1012.9 |
| 20260503045118 | 6 | 228 | 3.2 | 8.0 | 0.00 | 0.00 | 0.00 | 69 | 1012.9 |
| 20260503044616 | 6 | 211 | 3.2 | 8.0 | 0.00 | 0.00 | 0.00 | 69 | 1012.9 |
| 20260503044116 | 6 | 209 | 3.2 | 6.4 | 0.00 | 0.00 | 0.00 | 69 | 1012.9 |
| 20260503043616 | 6 | 213 | 3.2 | 4.8 | 0.00 | 0.00 | 0.00 | 68 | 1012.9 |
| 20260503043114 | 6 | 213 | 3.2 | 6.4 | 0.00 | 0.00 | 0.00 | 68 | 1012.9 |
| 20260503042614 | 6 | 211 | 3.2 | 6.4 | 0.00 | 0.00 | 0.00 | 68 | 1012.9 |
| 20260503042114 | 6 | 204 | 3.2 | 6.4 | 0.00 | 0.00 | 0.00 | 67 | 1012.9 |
| 20260503041615 | 6 | 205 | 3.2 | 8.0 | 0.00 | 0.00 | 0.00 | 67 | 1012.9 |
| 20260503041332 | 6 | 183 | 3.2 | 8.0 | 0.00 | 0.00 | 0.00 | 67 | 1012.9 |
| 20260503040614 | 6 | 182 | 3.2 | 6.4 | 0.00 | 0.00 | 0.00 | 67 | 1012.9 |
| 20260503040114 | 6 | 217 | 3.2 | 6.4 | 0.00 | 0.00 | 0.00 | 67 | 1013.0 |